EHI
0 0 0 0 0 0 0 0 0 0 0 0 0 0 1 2 3 3 6 12 17 19 23 26 28 29 34 40 41 41 45 51 55 54 50 47 40 33 30 30 32 32 31 32
0 0 0 0 0 0 0 0 0 0 0 0 0 0 0 1 1 2 5 11 17 17 18 23 27 31 36 40 40 41 46 49 50 50 47 41 33 24 18 18 18 19 19 21
0 0 0 0 0 0 0 0 0 0 0 0 0 0 0 1 1 1 3 8 12 14 15 19 25 30 36 41 40 40 43 44 44 43 39 30 22 14 9 6 5 5 6 7
0 0 0 0 0 0 0 0 0 0 0 0 0 0 0 2 2 2 3 6 9 12 15 18 21 26 31 34 35 36 37 37 36 35 29 21 15 11 7 4 2 1 0 1
0 0 0 0 0 0 0 0 0 0 0 0 0 0 0 1 2 2 3 5 8 10 13 14 15 18 21 23 26 29 30 28 27 27 22 15 11 8 5 3 1 0 0 0
0 0 0 0 0 0 0 0 0 0 0 0 0 0 1 2 3 3 2 2 3 5 7 8 9 9 10 13 17 21 21 20 19 18 14 10 7 5 3 1 0 0 0 0
0 0 0 0 0 0 0 0 0 0 0 0 0 1 5 9 9 6 3 1 0 1 3 3 3 3 3 5 8 11 12 12 11 10 7 4 3 3 2 1 0 0 0 0
0 0 0 0 0 0 0 0 0 0 0 0 0 2 9 14 13 8 4 1 0 0 1 1 1 1 0 1 2 3 4 4 4 3 2 1 1 1 1 0 0 0 0 0
0 0 0 0 0 0 0 0 0 0 0 0 0 2 7 10 10 7 3 1 0 0 0 0 0 0 0 0 0 0 0 0 1 1 0 0 0 0 0 0 0 0 0 0
0 0 0 0 0 0 0 0 0 0 0 0 0 1 3 6 7 6 4 1 0 0 0 0 0 0 0 0 0 0 0 0 0 0 0 0 0 0 0 0 0 0 0 0
0 0 0 0 0 0 0 0 0 0 0 0 0 0 3 6 8 7 5 2 1 0 0 0 0 0 0 0 0 0 0 0 0 0 0 0 0 0 0 0 0 0 0 0
0 0 0 0 0 0 0 0 0 0 0 0 0 0 3 7 9 9 7 3 1 0 0 0 0 0 0 0 0 0 0 0 0 0 0 0 0 0 0 0 0 0 0 0
0 0 0 0 0 0 0 0 0 0 0 0 0 0 2 7 10 10 7 3 1 0 0 0 0 0 0 0 0 0 0 0 0 0 0 0 0 0 0 0 0 0 0 0
0 0 0 0 0 0 0 0 0 0 0 0 0 0 1 5 7 7 5 2 0 0 0 0 0 0 0 0 0 0 0 0 0 0 0 0 0 0 0 0 0 0 0 0
0 0 0 0 0 0 0 0 0 0 0 0 0 0 1 2 3 3 2 1 0 0 0 0 0 0 0 0 0 0 0 0 0 0 0 0 0 0 0 0 0 0 0 0
0 0 0 0 0 0 0 0 0 0 0 0 0 0 1 1 1 1 1 0 0 0 0 0 0 0 0 0 0 0 0 0 0 0 0 0 0 0 0 0 0 0 0 0
0 0 0 0 0 0 0 0 0 0 0 0 0 0 1 1 0 0 0 0 0 0 0 0 0 0 0 0 0 0 0 0 0 0 0 0 0 0 0 0 0 0 0 0
0 0 0 0 0 0 0 0 0 0 0 0 0 0 0 0 0 0 0 0 0 0 0 0 0 0 0 0 0 0 0 0 0 0 0 0 0 0 0 0 0 0 0 0
0 0 0 0 0 0 0 0 0 0 0 0 0 0 0 0 0 0 0 0 0 0 0 0 0 0 0 0 0 0 0 0 0 0 0 0 0 0 0 0 0 0 0 0
0 0 0 0 0 0 0 0 0 0 0 0 0 1 1 1 0 0 0 0 0 0 0 0 0 0 0 0 0 0 0 0 0 0 0 0 0 0 0 0 0 0 0 0
0 0 0 0 0 0 0 0 0 0 0 0 0 1 1 1 0 0 0 0 0 0 0 0 0 0 0 0 0 0 0 0 0 0 0 0 0 0 0 0 0 0 0 0
0 0 0 0 0 0 0 0 0 0 0 0 0 0 0 0 0 0 0 0 0 0 0 0 0 0 0 0 0 0 0 0 0 0 0 0 0 0 0 0 0 0 0 0
0 0 0 0 0 0 0 0 0 0 0 0 0 0 0 0 0 0 0 0 0 0 0 0 0 0 0 0 0 0 0 0 0 0 0 0 0 0 0 0 0 0 0 0
0 0 0 0 0 0 0 0 0 0 0 0 0 0 0 0 0 0 0 0 0 0 0 0 0 0 0 0 0 0 0 0 0 0 0 0 0 0 0 0 0 0 0 0
0 0 0 0 0 0 0 0 0 0 0 0 0 0 0 0 0 0 0 0 0 0 0 0 0 0 0 0 0 0 0 0 0 0 0 0 0 0 0 0 0 0 0 0
0 0 0 0 0 0 0 0 0 0 0 0 0 0 0 0 0 0 0 0 0 0 0 0 0 0 0 0 0 0 0 0 0 0 0 0 0 0 0 0 0 0 0 0
Wind_Speed
7 9 7 3 4 6 6 8 8 4 2 6 6 4 2 1 2 1 1 1 2 5 5 5 4 3 4 4 6 8 8 8 7 6 5 5 5 5 4 3 3 3 4 5
8 9 4 3 4 7 8 10 8 4 2 5 5 4 2 1 2 3 3 3 4 5 6 6 6 4 4 4 4 5 7 7 8 6 5 3 4 4 4 4 4 4 3 3
9 0 1 5 7 9 9 9 8 7 5 7 8 9 8 5 4 5 5 5 6 6 7 7 7 6 5 4 3 2 3 5 5 6 5 5 4 4 4 4 4 5 5 6
8 5 6 9 9 10 10 6 8 9 11 9 9 9 8 8 6 5 6 7 7 7 8 8 8 8 7 5 4 3 3 3 4 6 6 7 5 4 4 4 5 7 8 7
7 6 8 11 9 9 10 7 9 11 13 12 11 12 6 9 8 7 6 7 8 8 9 9 9 9 9 8 6 5 4 5 4 4 6 6 6 6 6 7 9 8 8 9
11 7 8 10 8 8 8 9 10 11 12 14 13 12 6 7 7 9 8 8 8 8 9 9 9 9 10 9 8 7 6 6 6 6 6 7 10 10 10 9 9 7 6 8
10 10 9 8 11 9 9 10 9 10 11 11 7 8 1 5 5 10 10 9 8 8 8 9 10 10 10 11 10 9 9 9 8 10 10 10 11 12 11 10 9 8 7 7
8 6 3 5 8 7 8 11 11 9 8 4 5 5 6 7 8 10 10 10 9 9 9 9 10 10 10 10 10 10 11 11 11 11 11 11 11 10 9 10 9 9 7 8
6 5 2 4 6 8 8 9 8 11 13 9 4 5 7 7 9 10 10 9 9 9 9 9 10 10 10 10 11 11 12 12 12 13 13 13 13 12 12 11 11 9 8 8
6 9 5 3 7 9 9 7 6 9 8 9 7 8 7 14 13 11 10 9 9 9 9 9 9 10 10 10 11 12 12 13 13 13 12 12 13 13 12 12 12 12 11 10
6 8 5 6 7 6 7 8 9 9 8 8 6 1 3 8 13 13 11 10 10 9 9 8 8 9 10 10 11 11 12 13 13 13 13 14 13 13 13 12 12 11 10 9
5 7 7 5 1 3 7 7 8 8 8 8 8 3 5 4 11 13 13 11 10 9 9 9 9 9 10 11 11 11 12 13 13 13 14 14 13 13 13 12 11 10 9 9
4 6 7 5 6 6 6 6 7 8 7 7 8 3 6 9 12 13 14 12 10 10 9 9 9 10 10 10 11 11 12 13 13 14 14 14 13 13 12 11 10 10 10 9
5 7 8 7 5 3 4 5 6 8 7 7 6 3 7 10 12 13 13 12 11 10 10 10 10 10 10 10 11 12 12 12 12 13 13 13 12 12 11 10 10 9 9 9
6 7 7 6 5 5 6 5 5 7 7 7 4 2 7 11 13 13 13 13 12 11 11 11 10 10 10 11 11 12 12 11 11 12 12 12 11 11 10 10 10 9 9 9
6 7 6 6 5 6 6 5 5 5 5 4 2 3 7 12 13 13 14 14 13 12 12 11 11 11 11 11 11 11 11 10 10 11 12 11 10 10 10 10 9 9 9 9
6 6 6 6 4 6 6 3 3 2 2 2 2 4 12 13 13 14 14 14 13 13 12 12 11 11 11 11 11 10 10 10 10 11 11 11 10 10 9 9 9 9 9 9
6 6 5 5 5 5 4 3 1 2 1 0 4 9 11 12 11 11 12 14 14 14 13 12 11 12 11 11 10 10 10 10 10 10 10 10 10 10 9 9 8 8 7 7
6 6 5 5 5 2 6 4 4 2 2 3 8 12 13 15 12 9 10 12 13 14 13 12 11 12 11 11 11 10 10 10 10 10 9 9 9 9 8 8 7 7 6 6
6 7 7 6 6 3 5 5 2 3 4 7 10 14 16 15 9 8 12 13 14 13 12 12 12 12 11 11 10 10 10 9 10 10 9 8 8 7 7 7 6 6 5 5
7 7 8 8 6 2 6 4 5 5 5 11 12 14 14 8 7 15 16 15 14 13 13 12 12 11 11 11 10 9 10 9 9 9 9 8 7 7 7 6 5 4 5 5
5 5 5 5 5 3 5 4 1 5 8 11 12 12 11 13 18 18 17 17 16 15 13 12 11 11 10 10 10 10 10 9 9 8 8 7 6 6 6 5 5 4 4 4
3 3 3 4 5 6 3 3 4 5 10 12 13 14 15 17 18 18 17 16 15 15 13 11 12 11 9 9 9 10 9 9 8 8 7 7 6 5 5 4 4 4 2 2
4 1 1 3 6 5 5 5 6 8 11 13 15 16 17 18 18 18 16 15 14 14 13 12 12 11 9 8 8 8 8 8 8 8 7 6 5 5 5 3 3 3 3 3
3 5 3 4 7 8 7 7 10 12 14 16 16 16 17 19 19 18 15 15 13 12 12 11 11 10 10 9 9 9 8 7 7 7 6 5 5 5 4 5 6 6 8 8
5 4 3 2 9 7 10 10 13 15 16 17 17 17 17 17 18 17 15 13 13 12 11 11 11 11 11 10 9 8 8 7 6 6 5 4 4 4 4 5 6 7 7 5
Wind_Direction
198 233 234 242 262 296 293 284 279 285 272 262 256 250 237 289 298 339 327 8 74 70 58 58 78 113 131 147 164 171 177 172 165 165 172 176 174 167 147 136 134 166 171 165
211 229 242 247 249 261 266 269 267 251 198 264 257 239 183 147 62 46 40 53 66 74 66 59 64 77 107 128 148 167 175 174 174 171 166 165 148 139 129 120 100 99 111 123
243 265 138 241 236 249 258 271 283 286 268 235 239 229 191 164 120 96 78 73 67 65 64 57 57 61 71 84 106 136 151 164 158 150 139 130 119 108 109 103 88 71 78 86
249 247 238 249 253 262 268 271 278 270 261 246 229 257 186 169 156 115 87 75 68 63 64 60 56 52 51 56 67 81 101 108 125 142 151 151 146 131 105 98 87 71 63 69
235 231 242 255 269 273 282 297 277 267 264 265 240 252 202 173 177 138 105 83 71 62 60 57 52 51 48 45 52 58 73 88 98 117 136 141 128 110 104 97 90 78 68 66
263 256 262 274 279 271 273 266 257 252 252 250 245 249 224 181 183 144 123 100 83 73 64 59 58 55 49 46 49 55 68 69 75 87 94 109 113 112 111 103 97 85 75 68
248 240 227 250 261 237 237 251 251 238 230 239 217 238 152 120 130 140 131 111 94 80 68 60 55 53 50 48 49 55 66 65 66 74 78 87 100 104 104 102 96 91 82 73
277 269 201 220 250 268 245 253 263 280 279 263 190 224 102 106 106 115 117 113 99 84 72 64 57 54 52 51 52 57 65 66 67 72 75 79 86 88 87 87 89 84 79 78
283 294 143 221 242 259 254 244 273 280 275 273 224 139 125 133 130 128 124 118 102 88 78 70 63 58 55 55 54 60 69 71 71 74 76 74 79 86 91 91 88 86 85 86
277 283 263 207 236 228 265 280 254 253 270 265 234 207 188 175 167 154 141 124 108 95 84 74 68 64 62 63 64 65 69 73 74 75 78 81 80 84 88 88 87 88 87 86
251 267 254 219 239 255 223 231 246 258 267 275 266 155 41 174 167 158 144 127 115 104 93 84 76 73 72 71 71 72 74 77 78 80 82 84 84 85 85 85 85 85 85 86
225 268 273 257 253 293 266 263 253 256 257 258 281 81 40 137 146 144 133 123 115 107 99 92 86 81 78 76 76 76 78 81 85 87 87 88 89 89 88 86 86 86 85 84
190 246 268 227 186 200 233 241 253 261 275 270 269 115 88 119 124 129 128 125 119 114 108 100 92 86 82 82 82 83 84 87 90 92 92 91 89 89 88 87 86 85 84 82
235 258 278 299 326 308 256 248 249 256 264 271 275 136 139 135 132 130 130 128 125 119 114 107 100 95 93 92 91 91 91 93 95 95 95 94 92 91 91 91 89 86 86 87
236 258 265 278 283 268 271 274 263 259 272 279 295 151 157 152 145 140 137 135 131 126 121 115 110 107 103 99 97 97 97 99 101 102 100 99 100 100 98 96 93 91 89 89
228 265 263 256 237 241 251 257 262 269 268 251 205 124 129 135 136 141 144 142 138 135 129 123 118 115 111 108 106 105 105 108 109 107 105 105 105 103 101 100 97 94 89 86
218 242 259 261 241 246 246 231 226 227 249 245 250 135 138 143 151 153 151 147 144 140 136 133 129 123 119 117 118 118 120 121 118 114 113 114 113 107 104 101 97 94 92 89
237 244 259 268 251 249 86 95 164 156 138 28 108 133 146 140 135 138 145 143 142 141 140 136 132 127 126 129 128 125 125 123 119 116 114 113 110 107 105 102 99 99 96 94
237 246 262 265 262 254 137 155 174 191 130 131 131 129 125 123 113 116 133 139 141 141 138 134 133 132 134 135 134 131 128 124 120 117 116 114 113 112 110 105 103 101 101 100
206 235 255 265 285 308 99 126 162 215 155 144 145 144 145 151 149 143 141 136 133 133 132 133 136 137 139 139 138 134 128 123 117 113 111 110 109 106 102 100 101 101 101 101
200 220 247 267 275 61 85 127 198 252 97 145 154 155 161 167 118 130 137 134 133 132 134 139 142 141 140 141 139 133 125 117 114 114 112 108 105 102 98 97 98 105 101 93
234 239 244 264 271 92 95 167 278 58 114 142 146 148 134 112 115 128 134 135 138 138 141 145 141 138 140 144 142 132 122 119 119 117 113 109 103 97 98 99 97 91 97 120
250 331 341 358 42 75 78 64 72 118 133 137 138 134 127 127 130 132 135 137 141 143 144 144 140 138 141 146 141 129 127 129 127 122 115 111 102 88 89 100 110 114 120 101
150 163 183 134 106 105 102 104 112 121 126 130 132 133 134 132 133 134 135 139 142 144 144 145 144 141 138 138 130 127 133 135 133 129 123 116 110 107 97 88 84 76 65 69
133 174 177 135 127 129 116 115 118 118 120 123 127 131 133 134 136 136 138 141 143 145 148 149 145 142 140 137 134 135 139 142 140 136 129 121 111 99 101 78 47 41 54 34
174 185 216 140 154 145 129 130 129 128 128 128 128 129 133 136 137 138 138 141 143 145 147 147 145 143 141 140 139 139 143 145 145 144 143 135 124 121 125 128 118 62 58 74